Location: Kouchibouguac National Park
(46.8081°N, 64.9088°W)
Time: 08:46:30
(UTC-03:00)

Amateur Radio Satellites - All Passes

Search period start: 04 July 2015 08:16
Search period end: 05 July 2015 08:16
Location: Kouchibouguac National Park, 46.8081°N, 64.9088°W

Satellite Date Start Highest point End Downlink Frequencies (MHz)
Time Altitude Azimuth
Cubesat XI-IV 04 Jul 08:17:06 08:22:26 64° 289° (WNW) 08:27:44 437.490
AIST 2 04 Jul 08:25:22 08:28:07 17° 113° (ESE) 08:31:02 435.215
AUBIESAT-1 04 Jul 08:27:49 08:31:00 44° 66° (ENE) 08:34:22 437.475
BEESAT 3 04 Jul 08:34:33 08:38:39 90° 149° (SSE) 08:42:47 437.485
AO-7 04 Jul 08:39:41 08:44:12 15° 321° (NW) 08:48:25 29.400- 29.500
Cosmos 2504 04 Jul 08:39:44 08:44:50 21° 300° (WNW) 08:49:45 435.465 / 435.565
CUTE 1.7 + AOD 2 04 Jul 08:43:07 08:43:39 10° 85° (E) 08:44:26 437.475
DANDE 04 Jul 08:45:16 08:52:19 63° 99° (E) 08:57:41 436.750
CANX-2 04 Jul 08:45:18 08:47:03 12° 87° (E) 08:49:01 2200.000
BEESAT 2 04 Jul 08:46:07 08:50:15 88° 306° (NW) 08:54:25 435.950
ISS 04 Jul 08:51:32 08:54:13 24° 140° (SE) 08:56:55 145.825
GOMX 1 04 Jul 08:53:31 08:56:53 23° 92° (E) 09:00:15 467.674
GONETS M04 04 Jul 08:53:56 09:01:30 35° 85° (E) 09:09:13
RS-15 04 Jul 08:56:34 09:06:39 35° 16° (NNE) 09:17:15 29.354- 29.394
M-CUBED/EXP-1 PRIME 04 Jul 09:01:42 09:04:57 55° 254° (WSW) 09:08:21 437.505
BRITE-PL 04 Jul 09:15:30 09:19:54 66° 101° (ESE) 09:24:02 437.365/2234.400
VERMONT LUNAR 04 Jul 09:19:15 09:21:33 19° 166° (SSE) 09:23:53 437.305
CUTE-I 04 Jul 09:24:02 09:27:57 21° 300° (WNW) 09:31:44 437.470
CUSAT 1 04 Jul 09:27:59 09:34:00 46° 284° (WNW) 09:38:36 437.405
HO-68 04 Jul 09:29:21 09:36:00 40° 97° (E) 09:42:42 435.675
SEEDS 04 Jul 09:29:36 09:33:11 26° 93° (E) 09:36:49 437.485
TIGRISAT 04 Jul 09:30:17 09:31:34 11° 59° (ENE) 09:33:02 435.000
DOVE 4 04 Jul 09:39:08 09:43:07 42° 98° (E) 09:47:05 437.250
O/OREOS (USA 219) 04 Jul 09:39:14 09:43:01 26° 307° (NW) 09:46:48 437.305
AAUSAT CUBESAT 2 04 Jul 09:41:48 09:45:14 24° 93° (E) 09:48:44 437.432
CUBEBUG 2 04 Jul 09:43:40 09:44:53 11° 87° (E) 09:46:21 437.445
Oscar 11 04 Jul 09:56:09 09:58:56 17° 89° (E) 10:01:49 145.826/435.025
Cubesat XI-IV 04 Jul 09:59:47 10:01:37 11° 307° (NW) 10:03:12 437.490
DELFI C3 04 Jul 10:01:18 10:02:59 12° 87° (E) 10:04:52 145.870
AIST 2 04 Jul 10:02:05 10:06:19 61° 310° (NW) 10:10:34 435.215
AUBIESAT-1 04 Jul 10:04:36 10:06:10 12° 266° (W) 10:07:37 437.475
COMPASS 1 04 Jul 10:07:07 10:11:16 51° 99° (E) 10:15:25 437.405
UNISAT 6 04 Jul 10:07:17 10:10:49 26° 66° (ENE) 10:14:24 437.425
BEESAT 3 04 Jul 10:14:26 10:17:13 17° 327° (NNW) 10:19:56 437.485
CUTE 1.7 + AOD 2 04 Jul 10:15:56 10:20:14 84° 284° (WNW) 10:24:32 437.475
QB50P2 04 Jul 10:19:05 10:21:41 16° 63° (ENE) 10:24:25 145.880/145.840
CANX-2 04 Jul 10:19:16 10:23:33 71° 285° (WNW) 10:27:50 2200.000
POPSAT HIP 1 04 Jul 10:19:57 10:22:31 16° 62° (ENE) 10:25:12 437.405
FUNcube-1 04 Jul 10:22:37 10:25:29 18° 91° (E) 10:28:30 145.935
BEESAT 2 04 Jul 10:26:09 10:28:56 17° 327° (NNW) 10:31:39 435.950
ISS 04 Jul 10:27:10 10:30:24 65° 337° (NNW) 10:33:38 145.825
CINEMA 3 04 Jul 10:27:24 10:31:32 65° 101° (E) 10:35:44 145.822/145.860
DANDE 04 Jul 10:30:15 10:35:40 24° 291° (WNW) 10:39:58 436.750
GOMX 1 04 Jul 10:31:19 10:35:11 34° 291° (WNW) 10:38:55 467.674
UWE-3 04 Jul 10:33:35 10:37:17 30° 95° (E) 10:41:05 435.000/436.395/437.385
GONETS M04 04 Jul 10:49:21 10:58:02 59° 286° (WNW) 11:06:38
ANTELSAT 04 Jul 10:50:57 10:55:13 71° 74° (ENE) 10:59:28 437.575/2403.000
VERMONT LUNAR 04 Jul 10:55:19 10:57:59 25° 182° (S) 11:00:39 437.305
BRITE-PL 04 Jul 10:55:27 10:57:55 15° 300° (WNW) 11:00:10 437.365/2234.400
QB50P1 04 Jul 10:57:28 11:01:21 36° 69° (ENE) 11:05:16 145.935-145.965
TIGRISAT 04 Jul 11:03:26 11:07:44 89° 256° (WSW) 11:12:00 435.000
SEEDS 04 Jul 11:05:11 11:09:01 32° 291° (WNW) 11:12:49 437.485
DX 1 04 Jul 11:07:38 11:10:47 20° 92° (E) 11:14:02 434.975-435.025
PHONESAT 2.4 04 Jul 11:08:15 11:11:03 23° 168° (SSE) 11:13:53 2401.200-2431.200
RS-15 04 Jul 11:10:03 11:21:39 69° 46° (NE) 11:33:45 29.354- 29.394
NANOSAT C BR1 04 Jul 11:11:34 11:15:39 50° 72° (ENE) 11:19:46 145.865
Cosmos 2499 04 Jul 11:14:28 11:21:11 51° 91° (E) 11:28:05 435.465 / 435.565
AAUSAT CUBESAT 2 04 Jul 11:17:04 11:20:55 34° 291° (WNW) 11:24:44 437.432
HO-68 04 Jul 11:17:05 11:23:52 46° 296° (WNW) 11:30:34 435.675
DOVE 4 04 Jul 11:17:37 11:20:40 19° 296° (WNW) 11:23:36 437.250
CUBEBUG 2 04 Jul 11:17:59 11:22:10 75° 285° (WNW) 11:26:26 437.445
DUCHIFAT 1 04 Jul 11:18:33 11:22:42 57° 73° (ENE) 11:26:53 145.980
ZACube-1 04 Jul 11:21:35 11:25:48 76° 102° (ESE) 11:30:04 437.345
POLYITAN 1 04 Jul 11:23:11 11:27:23 68° 74° (ENE) 11:31:37 437.675
UKube-1 04 Jul 11:28:35 11:32:23 29° 95° (E) 11:36:11 .
Oscar 11 04 Jul 11:31:13 11:35:29 53° 288° (WNW) 11:39:43 145.826/435.025
DELFI C3 04 Jul 11:34:31 11:38:34 64° 286° (WNW) 11:42:36 145.870
BUGSAT 1 04 Jul 11:36:50 11:41:00 61° 73° (ENE) 11:45:10 437.445
50 SAT 04 Jul 11:41:58 11:45:19 27° 95° (E) 11:48:44 437.505
HUMSAT D 04 Jul 11:42:57 11:47:03 56° 100° (E) 11:51:11 437.325/437.525
AIST 2 04 Jul 11:43:22 11:45:46 14° 332° (NNW) 11:48:04 435.215
AISAT 04 Jul 11:43:30 11:47:15 27° 94° (E) 11:51:01 437.250
UNISAT 6 04 Jul 11:43:37 11:47:31 33° 264° (W) 11:51:24 437.425
COMPASS 1 04 Jul 11:43:41 11:46:36 18° 296° (WNW) 11:49:24 437.405
QB50P2 04 Jul 11:53:00 11:57:11 58° 259° (W) 12:01:24 145.880/145.840
POPSAT HIP 1 04 Jul 11:53:47 11:57:59 59° 259° (W) 12:02:12 437.405
CUTE 1.7 + AOD 2 04 Jul 11:54:23 11:55:30 11° 301° (WNW) 11:56:25 437.475
FUNcube-1 04 Jul 11:58:03 12:02:05 46° 288° (WNW) 12:06:10 145.935
CUBEBUG 1 04 Jul 12:02:27 12:05:57 23° 92° (E) 12:09:30 437.445
ISS 04 Jul 12:04:09 12:07:09 33° 358° (N) 12:10:09 145.825
CINEMA 3 04 Jul 12:06:04 12:08:20 14° 298° (WNW) 12:10:28 145.822/145.860
UWE-3 04 Jul 12:10:10 12:13:48 28° 292° (WNW) 12:17:25 435.000/436.395/437.385
ESTCUBE 1 04 Jul 12:14:15 12:18:29 37° 97° (E) 12:22:41 437.505/2401.250
YUBILEINY 04 Jul 12:30:02 12:31:35 11° 42° (NE) 12:33:42 435.215
ANTELSAT 04 Jul 12:30:45 12:32:35 12° 273° (W) 12:34:13 437.575/2403.000
VERMONT LUNAR 04 Jul 12:32:23 12:34:22 15° 199° (SSW) 12:36:19 437.305
VELOX 1 04 Jul 12:32:28 12:36:56 81° 103° (ESE) 12:41:20 145.980
QB50P1 04 Jul 12:33:52 12:37:20 23° 267° (W) 12:40:43 145.935-145.965
DX 1 04 Jul 12:43:07 12:47:18 45° 290° (WNW) 12:51:25 434.975-435.025
PHONESAT 2.4 04 Jul 12:45:35 12:48:35 27° 185° (S) 12:51:36 2401.200-2431.200
NANOSAT C BR1 04 Jul 12:48:56 12:51:49 17° 270° (W) 12:54:34 145.865
GONETS M04 04 Jul 12:52:46 12:57:21 14° 312° (NW) 13:01:28
DUCHIFAT 1 04 Jul 12:56:25 12:58:56 15° 271° (W) 13:01:18 145.980
ZACube-1 04 Jul 12:59:38 13:01:40 13° 299° (WNW) 13:03:32 437.345
POLYITAN 1 04 Jul 13:01:49 13:03:50 13° 273° (W) 13:05:39 437.675
Oscar 19 04 Jul 13:03:37 13:08:12 35° 66° (ENE) 13:12:51 437.125/150
UKube-1 04 Jul 13:04:40 13:08:30 30° 293° (WNW) 13:12:16 .
SPROUT 04 Jul 13:05:09 13:08:59 32° 95° (E) 13:12:50 437.525
HO-68 04 Jul 13:07:36 13:10:00 12° 318° (NW) 13:12:05 435.675
Cosmos 2499 04 Jul 13:08:26 13:14:42 32° 294° (WNW) 13:21:00 435.465 / 435.565
Gurwin Techsat 1B 04 Jul 13:09:34 13:12:17 15° 56° (ENE) 13:15:13 435.225
BUGSAT 1 04 Jul 13:14:34 13:16:56 14° 272° (W) 13:19:05 437.445
50 SAT 04 Jul 13:16:35 13:19:54 26° 292° (WNW) 13:23:11 437.505
ITAMSAT 1 04 Jul 13:16:36 13:19:36 16° 57° (ENE) 13:22:47 435.822/435.867
HUMSAT D 04 Jul 13:19:47 13:22:26 16° 297° (WNW) 13:24:57 437.325/437.525
AISAT 04 Jul 13:19:53 13:23:53 34° 292° (WNW) 13:27:50 437.250
RS-15 04 Jul 13:22:57 13:33:45 44° 249° (WSW) 13:44:42 29.354- 29.394
CUBEBUG 1 04 Jul 13:38:23 13:42:27 38° 291° (WNW) 13:46:27 437.445
ISS 04 Jul 13:40:47 13:43:58 50° 18° (NNE) 13:47:08 145.825
TISAT 1 04 Jul 13:47:28 13:51:37 58° 101° (E) 13:55:43 437.305
ESTCUBE 1 04 Jul 13:51:22 13:55:13 27° 294° (WNW) 13:58:58 437.505/2401.250
AO-7 04 Jul 14:05:13 14:10:50 21° 46° (NE) 14:16:44 29.400- 29.500
BEESAT 04 Jul 14:07:56 14:11:11 18° 90° (E) 14:14:35 436.000
VELOX 1 04 Jul 14:10:43 14:12:55 13° 301° (WNW) 14:14:56 145.980
SWISSCUBE 04 Jul 14:22:57 14:27:01 27° 93° (E) 14:31:09 437.505
YUBILEINY 04 Jul 14:23:12 14:31:30 46° 70° (ENE) 14:39:53 435.215
PHONESAT 2.4 04 Jul 14:23:53 14:26:01 15° 201° (SSW) 14:28:07 2401.200-2431.200
ITUPSAT 1 04 Jul 14:28:09 14:32:15 28° 94° (E) 14:36:24 437.325
SPROUT 04 Jul 14:41:20 14:45:00 27° 293° (WNW) 14:48:35 437.525
Oscar 19 04 Jul 14:42:54 14:47:34 34° 264° (W) 14:52:13 437.125/150
Gurwin Techsat 1B 04 Jul 14:46:14 14:51:33 84° 76° (ENE) 14:56:55 435.225
Cosmos 2491 04 Jul 14:49:17 14:56:19 29° 82° (E) 15:03:35 435.465 / 435.565
ITAMSAT 1 04 Jul 14:53:14 14:58:28 87° 250° (WSW) 15:03:46 435.822/435.867
JAS-2 04 Jul 14:53:15 14:57:36 29° 63° (ENE) 15:02:16 435.910
BEESAT 3 04 Jul 15:13:12 15:16:24 22° 37° (NE) 15:19:37 437.485
ISS 04 Jul 15:17:18 15:20:18 35° 216° (SW) 15:23:18 145.825
TISAT 1 04 Jul 15:24:20 15:26:59 16° 298° (WNW) 15:29:29 437.305
KKS-1 04 Jul 15:24:28 15:27:31 18° 91° (E) 15:30:40 437.445
BEESAT 2 04 Jul 15:25:10 15:28:28 23° 38° (NE) 15:31:45 435.950
HORYU 2 04 Jul 15:26:08 15:29:59 31° 67° (ENE) 15:33:53 437.375
PCSat 04 Jul 15:41:15 15:45:26 24° 109° (ESE) 15:49:45 145.827
BEESAT 04 Jul 15:44:43 15:49:28 58° 289° (WNW) 15:54:10 436.000
AO-7 04 Jul 15:54:07 16:02:24 72° 67° (ENE) 16:10:46 29.400- 29.500
SWISSCUBE 04 Jul 16:00:31 16:05:00 39° 292° (WNW) 16:09:26 437.505
ITUPSAT 1 04 Jul 16:05:47 16:10:16 39° 292° (WNW) 16:14:43 437.325
STARS 04 Jul 16:16:04 16:20:08 37° 97° (E) 16:24:12 437.465
YUBILEINY 04 Jul 16:20:12 16:28:25 46° 272° (W) 16:36:33 435.215
Cosmos 2504 04 Jul 16:26:36 16:32:58 31° 67° (ENE) 16:39:51 435.465 / 435.565
SO-50 04 Jul 16:27:01 16:29:13 13° 109° (ESE) 16:31:39 436.795
O/OREOS (USA 219) 04 Jul 16:27:28 16:30:40 19° 48° (NE) 16:33:58 437.305
Gurwin Techsat 1B 04 Jul 16:29:19 16:32:19 15° 274° (W) 16:35:04 435.225
AIST 1 04 Jul 16:30:36 16:35:00 86° 97° (E) 16:39:27
ITAMSAT 1 04 Jul 16:36:32 16:38:51 12° 275° (W) 16:40:54 435.822/435.867
JAS-2 04 Jul 16:37:43 16:42:37 42° 263° (W) 16:47:46 435.910
AIST 2 04 Jul 16:42:57 16:46:46 31° 42° (NE) 16:50:33 435.215
Cosmos 2491 04 Jul 16:43:43 16:52:32 71° 283° (WNW) 17:01:21 435.465 / 435.565
BEESAT 3 04 Jul 16:50:40 16:54:42 58° 237° (WSW) 16:58:38 437.485
KKS-1 04 Jul 17:00:11 17:04:29 50° 289° (WNW) 17:08:46 437.445
HORYU 2 04 Jul 17:02:41 17:06:37 30° 265° (W) 17:10:30 437.375
BEESAT 2 04 Jul 17:02:48 17:06:50 56° 238° (WSW) 17:10:47 435.950
MOZHAYETS 4 04 Jul 17:17:07 17:21:13 31° 94° (E) 17:25:22
PCSat 04 Jul 17:23:08 17:28:29 60° 307° (NW) 17:33:53 145.827
CUTE-I 04 Jul 17:29:22 17:33:31 24° 61° (ENE) 17:37:48 437.470
AO-7 04 Jul 17:48:55 17:56:00 29° 268° (W) 18:02:56 29.400- 29.500
STARS 04 Jul 17:52:49 17:56:27 25° 294° (WNW) 17:59:59 437.465
Cubesat XI-IV 04 Jul 18:02:29 18:07:30 43° 68° (ENE) 18:12:36 437.490
SO-50 04 Jul 18:04:18 18:09:05 89° 135° (SE) 18:14:02 436.795
O/OREOS (USA 219) 04 Jul 18:06:04 18:10:34 63° 248° (WSW) 18:15:02 437.305
AIST 1 04 Jul 18:11:52 18:13:25 11° 299° (WNW) 18:14:45
Cosmos 2504 04 Jul 18:18:22 18:25:40 61° 267° (W) 18:33:29 435.465 / 435.565
HO-68 04 Jul 18:20:35 18:21:32 10° 41° (NE) 18:22:49 435.675
AIST 2 04 Jul 18:21:30 18:25:23 36° 242° (WSW) 18:29:11 435.215
Cosmos 2491 04 Jul 18:45:43 18:51:28 18° 308° (NW) 18:56:49 435.465 / 435.565
BRITE-PL 04 Jul 18:52:14 18:55:30 17° 62° (ENE) 18:58:48 437.365/2234.400
MOZHAYETS 4 04 Jul 18:54:17 18:58:28 33° 292° (WNW) 19:02:35
GONETS M04 04 Jul 18:59:57 19:06:01 21° 55° (NE) 19:12:24
CUTE-I 04 Jul 19:07:58 19:13:15 57° 259° (W) 19:18:35 437.470
PCSat 04 Jul 19:09:39 19:13:06 16° 331° (NNW) 19:16:27 145.827
CUBESAT XI-V 04 Jul 19:20:39 19:25:13 48° 99° (E) 19:29:44 437.345
DANDE 04 Jul 19:25:02 19:27:47 33° 72° (ENE) 19:30:14 436.750
PRISM 04 Jul 19:33:22 19:36:24 19° 92° (E) 19:39:30 437.425
CUTE 1.7 + AOD 2 04 Jul 19:38:40 19:40:13 12° 60° (ENE) 19:41:58 437.475
CANX-2 04 Jul 19:41:23 19:43:32 14° 61° (ENE) 19:45:50 2200.000
Cubesat XI-IV 04 Jul 19:43:05 19:47:47 30° 266° (W) 19:52:27 437.490
SO-50 04 Jul 19:46:33 19:50:19 22° 328° (NNW) 19:54:06 436.795
CINEMA 3 04 Jul 19:58:34 19:59:37 11° 60° (ENE) 20:00:52 145.822/145.860
HO-68 04 Jul 20:00:59 20:07:32 42° 62° (ENE) 20:14:11 435.675
CUSAT 1 04 Jul 20:03:07 20:05:32 29° 264° (W) 20:07:50 437.405
GOMX 1 04 Jul 20:03:37 20:08:21 41° 70° (ENE) 20:12:49 467.674
Cosmos 2504 04 Jul 20:14:25 20:16:39 11° 285° (WNW) 20:18:20 435.465 / 435.565
STRAND 1 04 Jul 20:17:31 20:22:37 58° 101° (E) 20:27:40 437.568
SEEDS 04 Jul 20:24:33 20:28:03 27° 67° (ENE) 20:31:38 437.485
BRITE-PL 04 Jul 20:28:04 20:33:33 80° 256° (WSW) 20:38:40 437.365/2234.400
AAUSAT CUBESAT 2 04 Jul 20:35:30 20:38:50 24° 66° (ENE) 20:42:16 437.432
CUBEBUG 2 04 Jul 20:44:36 20:46:58 15° 63° (ENE) 20:49:27 437.445
DOVE 4 04 Jul 20:47:00 20:51:47 65° 74° (ENE) 20:56:19 437.250
ZACube-1 04 Jul 20:48:24 20:48:45 10° 59° (ENE) 20:49:18 437.345
DELFI C3 04 Jul 20:51:58 20:53:37 13° 61° (ENE) 20:55:26 145.870
Oscar 11 04 Jul 20:53:55 20:56:58 20° 64° (ENE) 21:00:08 145.826/435.025
GONETS M04 04 Jul 20:55:45 21:04:32 83° 81° (E) 21:13:14
CUBESAT XI-V 04 Jul 20:58:42 21:02:23 22° 296° (WNW) 21:05:54 437.345
Cosmos 2499 04 Jul 21:00:52 21:06:48 24° 61° (ENE) 21:13:17 435.465 / 435.565
COMPASS 1 04 Jul 21:00:58 21:04:58 50° 72° (ENE) 21:09:02 437.405
PRISM 04 Jul 21:08:03 21:12:04 43° 290° (WNW) 21:16:02 437.425
CUTE 1.7 + AOD 2 04 Jul 21:11:21 21:15:34 83° 257° (WSW) 21:19:49 437.475
CANX-2 04 Jul 21:14:47 21:18:58 69° 258° (WSW) 21:23:12 2200.000
FUNcube-1 04 Jul 21:21:27 21:24:32 21° 65° (ENE) 21:27:43 145.935
CINEMA 3 04 Jul 21:31:45 21:36:15 85° 76° (ENE) 21:40:35 145.822/145.860
SO-50 04 Jul 21:32:06 21:32:44 10° 352° (N) 21:33:20 436.795
UWE-3 04 Jul 21:33:38 21:37:28 35° 70° (ENE) 21:41:17 435.000/436.395/437.385
AUBIESAT-1 04 Jul 21:39:06 21:42:38 26° 100° (E) 21:46:25 437.475
GOMX 1 04 Jul 21:42:13 21:46:35 27° 266° (W) 21:50:40 467.674
HO-68 04 Jul 21:48:27 21:55:16 45° 262° (W) 22:02:05 435.675
STRAND 1 04 Jul 21:57:29 22:01:27 22° 299° (WNW) 22:05:17 437.568
VELOX 1 04 Jul 21:58:53 22:01:04 14° 60° (ENE) 22:03:26 145.980
SEEDS 04 Jul 22:00:02 22:03:47 31° 265° (W) 22:07:31 437.485
DX 1 04 Jul 22:05:52 22:09:29 26° 66° (ENE) 22:13:10 434.975-435.025
AAUSAT CUBESAT 2 04 Jul 22:10:31 22:14:18 34° 264° (W) 22:18:07 437.432
BRITE-PL 04 Jul 22:10:53 22:12:51 12° 275° (W) 22:14:27 437.365/2234.400
M-CUBED/EXP-1 PRIME 04 Jul 22:13:09 22:17:18 65° 107° (ESE) 22:21:46 437.505
CUBEBUG 2 04 Jul 22:19:01 22:23:16 62° 260° (W) 22:27:27 437.445
ZACube-1 04 Jul 22:20:17 22:24:29 85° 80° (E) 22:28:40 437.345
DELFI C3 04 Jul 22:24:11 22:28:12 72° 259° (W) 22:32:14 145.870
UKube-1 04 Jul 22:26:01 22:30:00 37° 68° (ENE) 22:34:02 .
DOVE 4 04 Jul 22:27:00 22:29:59 16° 271° (W) 22:32:42 437.250
Oscar 11 04 Jul 22:28:41 22:32:51 47° 261° (W) 22:37:02 145.826/435.025
50 SAT 04 Jul 22:29:08 22:32:12 24° 67° (ENE) 22:35:21 437.505
HUMSAT D 04 Jul 22:37:23 22:41:24 57° 73° (ENE) 22:45:25 437.325/437.525
COMPASS 1 04 Jul 22:38:17 22:40:59 16° 271° (W) 22:43:35 437.405
ANTELSAT 04 Jul 22:41:41 22:43:16 12° 87° (E) 22:45:05 437.575/2403.000
PCSat 04 Jul 22:42:44 22:45:02 13° 23° (NNE) 22:47:28 145.827
AISAT 04 Jul 22:43:51 22:47:55 36° 68° (ENE) 22:52:01 437.250
Cosmos 2499 04 Jul 22:53:07 23:00:55 82° 263° (W) 23:09:20 435.465 / 435.565
TIGRISAT 04 Jul 22:53:11 22:55:41 15° 89° (E) 22:58:22 435.000
GONETS M04 04 Jul 22:53:56 23:00:26 23° 281° (W) 23:06:36
FUNcube-1 04 Jul 22:56:41 23:00:40 40° 262° (W) 23:04:36 145.935
CUBEBUG 1 04 Jul 23:01:13 23:05:03 29° 67° (ENE) 23:08:55 437.445
UWE-3 04 Jul 23:10:39 23:14:07 23° 267° (W) 23:17:27 435.000/436.395/437.385
CINEMA 3 04 Jul 23:13:12 23:14:07 10° 274° (W) 23:14:46 145.822/145.860
SO-50 04 Jul 23:13:26 23:15:29 12° 17° (NNE) 23:17:37 436.795
AUBIESAT-1 04 Jul 23:13:34 23:17:25 37° 296° (WNW) 23:21:29 437.475
ESTCUBE 1 04 Jul 23:16:29 23:20:50 48° 71° (ENE) 23:25:15 437.505/2401.250
UNISAT 6 04 Jul 23:31:54 23:35:58 38° 97° (E) 23:40:09 437.425
VELOX 1 04 Jul 23:32:36 23:37:04 80° 257° (WSW) 23:41:34 145.980
QB50P2 04 Jul 23:36:11 23:39:05 18° 91° (E) 23:42:06 145.880/145.840
POPSAT HIP 1 04 Jul 23:36:53 23:39:43 18° 90° (E) 23:42:41 437.405
DX 1 04 Jul 23:41:33 23:45:37 36° 263° (W) 23:49:40 434.975-435.025
M-CUBED/EXP-1 PRIME 04 Jul 23:49:04 23:51:47 17° 302° (WNW) 23:54:30 437.505
SPROUT 05 Jul 00:01:59 00:05:54 36° 69° (ENE) 00:09:53 437.525
UKube-1 05 Jul 00:02:39 00:06:14 24° 266° (W) 00:09:47 .
50 SAT 05 Jul 00:03:20 00:06:44 29° 264° (W) 00:10:08 437.505
QB50P1 05 Jul 00:15:03 00:19:06 44° 98° (E) 00:23:08 145.935-145.965
HUMSAT D 05 Jul 00:15:17 00:17:34 14° 272° (W) 00:19:41 437.325/437.525
ANTELSAT 05 Jul 00:16:16 00:20:39 77° 285° (WNW) 00:25:07 437.575/2403.000
AISAT 05 Jul 00:20:46 00:24:35 26° 266° (W) 00:28:20 437.250
PCSat 05 Jul 00:24:58 00:30:04 40° 46° (NE) 00:35:10 145.827
TIGRISAT 05 Jul 00:28:33 00:32:52 60° 287° (WNW) 00:37:14 435.000
NANOSAT C BR1 05 Jul 00:29:04 00:33:16 62° 102° (ESE) 00:37:25 145.865
DUCHIFAT 1 05 Jul 00:35:54 00:40:06 72° 102° (ESE) 00:44:16 145.980
CUBEBUG 1 05 Jul 00:37:21 00:41:21 32° 265° (W) 00:45:19 437.445
POLYITAN 1 05 Jul 00:41:22 00:45:37 86° 103° (ESE) 00:49:50 437.675
TISAT 1 05 Jul 00:42:04 00:46:15 64° 73° (ENE) 00:50:28 437.305
Cosmos 2499 05 Jul 00:48:10 00:53:09 18° 281° (W) 00:57:55 435.465 / 435.565
BUGSAT 1 05 Jul 00:51:31 00:55:36 71° 102° (ESE) 00:59:37 437.445
SO-50 05 Jul 00:53:02 00:57:33 33° 40° (NE) 01:02:02 436.795
ESTCUBE 1 05 Jul 00:54:35 00:58:00 20° 269° (W) 01:01:20 437.505/2401.250
Cosmos 2491 05 Jul 00:55:05 01:00:19 17° 51° (NE) 01:05:55 435.465 / 435.565
UNISAT 6 05 Jul 01:09:02 01:12:37 25° 294° (WNW) 01:16:11 437.425
QB50P2 05 Jul 01:11:12 01:15:16 46° 289° (WNW) 01:19:17 145.880/145.840
POPSAT HIP 1 05 Jul 01:11:50 01:15:54 46° 289° (WNW) 01:19:55 437.405
BEESAT 05 Jul 01:16:58 01:21:04 30° 66° (ENE) 01:25:14 436.000
SWISSCUBE 05 Jul 01:32:08 01:36:38 43° 69° (ENE) 01:41:12 437.505
ITUPSAT 1 05 Jul 01:37:36 01:42:08 44° 69° (ENE) 01:46:43 437.325
SPROUT 05 Jul 01:38:32 01:42:06 24° 267° (W) 01:45:36 437.525
RS-15 05 Jul 01:40:03 01:48:21 27° 104° (ESE) 01:57:14 29.354- 29.394
QB50P1 05 Jul 01:51:34 01:54:42 20° 296° (WNW) 01:57:44 145.935-145.965
ANTELSAT 05 Jul 01:56:07 01:56:47 10° 302° (WNW) 01:57:13 437.575/2403.000
NANOSAT C BR1 05 Jul 02:06:08 02:08:40 15° 298° (WNW) 02:11:03 145.865
PCSat 05 Jul 02:08:28 02:13:31 39° 246° (WSW) 02:18:29 145.827
DUCHIFAT 1 05 Jul 02:13:15 02:15:24 14° 299° (WNW) 02:17:24 145.980
POLYITAN 1 05 Jul 02:19:22 02:20:56 12° 301° (WNW) 02:22:19 437.675
TISAT 1 05 Jul 02:20:15 02:22:30 14° 272° (W) 02:24:35 437.305
KKS-1 05 Jul 02:25:19 02:28:55 25° 65° (ENE) 02:32:36 437.445
BUGSAT 1 05 Jul 02:28:36 02:30:34 13° 299° (WNW) 02:32:22 437.445
SO-50 05 Jul 02:33:29 02:38:16 47° 240° (WSW) 02:42:56 436.795
AIST 1 05 Jul 02:35:08 02:38:56 28° 71° (ENE) 02:42:43
Cosmos 2491 05 Jul 02:50:30 02:59:16 70° 77° (ENE) 03:07:58 435.465 / 435.565
Oscar 19 05 Jul 02:50:44 02:55:51 67° 102° (ESE) 03:00:58 437.125/150
BEESAT 05 Jul 02:54:24 02:58:49 36° 263° (W) 03:03:15 436.000
Gurwin Techsat 1B 05 Jul 02:59:58 03:04:23 27° 92° (E) 03:08:53 435.225
ITAMSAT 1 05 Jul 03:03:39 03:08:00 27° 93° (E) 03:12:24 435.822/435.867
SWISSCUBE 05 Jul 03:10:45 03:14:42 25° 267° (W) 03:18:35 437.505
STARS 05 Jul 03:15:33 03:19:46 47° 70° (ENE) 03:24:01 437.465
ITUPSAT 1 05 Jul 03:16:18 03:20:14 24° 268° (W) 03:24:06 437.325
YUBILEINY 05 Jul 03:27:54 03:35:58 47° 89° (E) 03:44:10 435.215
JAS-2 05 Jul 03:41:49 03:47:02 25° 90° (E) 03:52:53 435.910
RS-15 05 Jul 03:48:28 03:59:26 88° 309° (NW) 04:10:51 29.354- 29.394
AO-7 05 Jul 03:53:55 03:59:11 19° 86° (E) 04:04:52 29.400- 29.500
KKS-1 05 Jul 04:01:13 04:05:24 38° 263° (W) 04:09:34 437.445
AIST 1 05 Jul 04:12:45 04:16:34 29° 270° (W) 04:20:16
MOZHAYETS 4 05 Jul 04:21:45 04:26:00 40° 70° (ENE) 04:30:20
Oscar 19 05 Jul 04:31:06 04:34:46 20° 300° (WNW) 04:38:17 437.125/150
Gurwin Techsat 1B 05 Jul 04:39:31 04:44:37 47° 291° (WNW) 04:49:41 435.225
ITAMSAT 1 05 Jul 04:42:45 04:47:44 46° 292° (WNW) 04:52:40 435.822/435.867
Cosmos 2491 05 Jul 04:48:18 04:55:30 29° 278° (W) 05:02:26 435.465 / 435.565
HORYU 2 05 Jul 04:50:18 04:54:30 40° 98° (E) 04:58:44 437.375
STARS 05 Jul 04:53:16 04:56:29 19° 269° (W) 04:59:37 437.465
Cosmos 2504 05 Jul 05:03:51 05:07:59 18° 80° (E) 05:12:26 435.465 / 435.565
YUBILEINY 05 Jul 05:24:40 05:32:55 45° 290° (WNW) 05:41:09 435.215
JAS-2 05 Jul 05:26:07 05:32:36 71° 288° (WNW) 05:39:52 435.910
AO-7 05 Jul 05:45:01 05:53:28 82° 108° (ESE) 06:01:50 29.400- 29.500
STRAND 1 05 Jul 05:59:23 06:02:43 18° 59° (ENE) 06:06:13 437.568
MOZHAYETS 4 05 Jul 05:59:37 06:03:23 24° 268° (W) 06:07:09
RS-15 05 Jul 06:03:17 06:13:31 39° 336° (NNW) 06:24:05 29.354- 29.394
Cubesat XI-IV 05 Jul 06:18:29 06:20:47 13° 85° (E) 06:23:23 437.490
PRISM 05 Jul 06:26:12 06:29:25 22° 65° (ENE) 06:32:44 437.425
CUBESAT XI-V 05 Jul 06:26:33 06:31:12 65° 74° (ENE) 06:35:56 437.345
HORYU 2 05 Jul 06:27:20 06:30:58 24° 295° (WNW) 06:34:33 437.375
BEESAT 3 05 Jul 06:48:12 06:49:41 12° 111° (ESE) 06:51:22 437.485
Cosmos 2504 05 Jul 06:52:24 06:59:19 84° 279° (W) 07:06:19 435.465 / 435.565
BEESAT 2 05 Jul 07:00:56 07:02:46 13° 111° (ESE) 07:04:47 435.950
JAS-2 05 Jul 07:13:03 07:16:54 16° 305° (NW) 07:20:42 435.910
CUTE-I 05 Jul 07:22:04 07:27:14 46° 98° (E) 07:32:22 437.470
CUSAT 1 05 Jul 07:29:41 07:34:04 22° 94° (E) 07:37:51 437.405
YUBILEINY 05 Jul 07:31:28 07:32:53 10° 318° (NW) 07:33:45 435.215
M-CUBED/EXP-1 PRIME 05 Jul 07:32:20 07:33:50 13° 56° (NE) 07:35:29 437.505
STRAND 1 05 Jul 07:36:15 07:41:24 75° 256° (WSW) 07:46:36 437.568
AO-7 05 Jul 07:38:38 07:45:32 29° 308° (NW) 07:52:14 29.400- 29.500
Cubesat XI-IV 05 Jul 07:56:22 08:01:47 88° 100° (E) 08:07:10 437.490
ISS 05 Jul 07:59:10 08:00:53 14° 136° (SE) 08:02:42 145.825
PRISM 05 Jul 08:00:43 08:04:39 39° 262° (W) 08:08:37 437.425
CUBESAT XI-V 05 Jul 08:06:12 08:09:10 16° 272° (W) 08:11:59 437.345
